Tracking 26955 objects as of 2-Feb-2023
HD Live streaming from Space Station
objects crossing your sky now

INTELSAT 502

Track INTELSAT 502 now!
INTELSAT 502 is classified as:


NORAD ID: 12089
Int'l Code: 1980-098A
Perigee: 36,134.7 km
Apogee: 36,234.9 km
Inclination: 13.0 °
Period: 1,456.1 minutes
Semi major axis: 42555 km
RCS: 13.5237 m2 (large)
Launch date: December 6, 1980
Source: International Telecommunications Satellite Organization (ITSO)
Launch site: AIR FORCE EASTERN TEST RANGE (AFETR)
Your satellite tracking list
Your tracking list is empty




NASA's NSSDC Master Catalog

Two Line Element Set (TLE):
1 12089U 80098A   23033.38774581 -.00000275  00000-0  00000-0 0  9994
2 12089  13.0138 335.4626 0011776 302.9083 137.8158  0.98892915121552
Source of the keplerian elements: AFSPC